My Profile
  1. Member Settings
  2. My Devices
  3. Sign Out
        More Settings
      Elev 94 ft, 60.952 °N 149.125 °W

      Girdwood, AK

      Summary

      Temperature (°F)MaxAverageMin
      Max Temperature413213
      Avg Temperature39.2426.755.69
      Min Temperature3823.032
      Precipitation (in)MaxAverageMinSum
      Precipitation3.440.41011.84
      Dew Point (°F)MaxAverageMin
      Dew Point34.9523.220.75
      Wind (mph)MaxAverageMin
      Wind2812.93
      Gust Wind5129.6316
      Sea Level Pressure (in)MaxAverageMin
      Sea Level Pressure30.529.7428.97

      Daily Observations

      DateTemp High/LowDew Pt High/LowHumidityWindMax WindWind GustPressurePrecip.Condition
      2/1/2025 13 °F / 2 °F 6 °F / -1 °F 81 % 9 mph - 30.41 in 0 in
      2/2/2025 13 °F / 4 °F 9 °F / 1 °F 88 % 5 mph - 30.47 in 0 in
      2/3/2025 15 °F / 4 °F 13 °F / 1 °F 90 % 3 mph - 30.46 in 0 in
      2/4/2025 17 °F / 7 °F 15 °F / 5 °F 92 % 6 mph - 30.31 in 0 in
      2/5/2025 19 °F / 13 °F 18 °F / 10 °F 93 % 8 mph - 30.1 in 0 in
      2/6/2025 18 °F / 5 °F 16 °F / 2 °F 90 % 8 mph - 30.08 in 0 in
      2/7/2025 14 °F / 3 °F 13 °F / 0 °F 90 % 3 mph - 30.12 in 0 in
      2/8/2025 31 °F / 7 °F 24 °F / 4 °F 81 % 10 mph - 30.32 in 0 in
      2/9/2025 34 °F / 31 °F 25 °F / 22 °F 70 % 18 mph - 30.46 in 0 in
      2/10/2025 35 °F / 32 °F 24 °F / 23 °F 65 % 14 mph - 30.49 in 0 in
      2/11/2025 34 °F / 16 °F 25 °F / 15 °F 78 % 12 mph - 30.26 in 0 in
      2/12/2025 23 °F / 8 °F 16 °F / 6 °F 90 % 5 mph - 29.8 in 0 in
      2/13/2025 29 °F / 7 °F 25 °F / 4 °F 90 % 7 mph - 29.31 in 0.12 in
      2/14/2025 37 °F / 19 °F 32 °F / 17 °F 84 % 25 mph - 29.36 in 0.48 in
      2/15/2025 39 °F / 32 °F 33 °F / 30 °F 85 % 20 mph - 29.65 in 0.78 in
      2/16/2025 39 °F / 32 °F 35 °F / 32 °F 93 % 13 mph - 29.63 in 0.29 in
      2/17/2025 41 °F / 37 °F 36 °F / 34 °F 86 % 20 mph - 29.66 in 0.52 in
      2/18/2025 40 °F / 37 °F 36 °F / 34 °F 86 % 21 mph - 29.56 in 0.99 in
      2/19/2025 41 °F / 33 °F 37 °F / 32 °F 92 % 18 mph - 29.36 in 0.24 in
      2/20/2025 41 °F / 37 °F 35 °F / 29 °F 78 % 20 mph - 29.23 in 0.52 in
      2/21/2025 40 °F / 34 °F 36 °F / 32 °F 87 % 20 mph - 29.19 in 3.06 in
      2/22/2025 40 °F / 29 °F 36 °F / 28 °F 97 % 5 mph - 29.03 in 0 in
      2/23/2025 38 °F / 27 °F 33 °F / 27 °F 91 % 9 mph - 29.04 in 0 in
      2/24/2025 40 °F / 30 °F 34 °F / 30 °F 93 % 10 mph - 29.22 in 0 in
      2/25/2025 40 °F / 30 °F 35 °F / 30 °F 91 % 7 mph - 29.34 in 0.15 in
      2/26/2025 36 °F / 30 °F 34 °F / 27 °F 95 % 9 mph - 29.11 in 0.07 in
      2/27/2025 40 °F / 30 °F 35 °F / 30 °F 89 % 28 mph - 29.26 in 1.96 in
      2/28/2025 38 °F / 34 °F 34 °F / 32 °F 92 % 22 mph - 29.38 in 2.66 in
      essentialaccessibility.com
      We recognize our responsibility to use data and technology for good. We may use or share your data with our data vendors. Take control of your data.
      Glossary